Leuchars, United Kingdom

11:15 PM BST on October 21, 2017 (GMT +0100)
Leuchars Air Base

Weather History for EGQL - September, 2012

Change the Weather History Date:

Sunday, September 9, 2012

  Actual Average Record
Temperature  
Mean Temperature 54 °F -  
Max Temperature 64 °F 57 °F 69 °F (2010)
Min Temperature 44 °F 46 °F 41 °F (1996)
Degree Days  
Heating Degree Days 11    
Growing Degree Days 4 (Base 50)    
Moisture  
Dew Point 52 °F    
Average Humidity 83    
Maximum Humidity 94    
Minimum Humidity 56    
Precipitation  
Precipitation 0.02 in - - ()
Sea Level Pressure  
Sea Level Pressure 29.65 in    
Wind  
Wind Speed 7 mph ()    
Max Wind Speed 18 mph    
Max Gust Speed -    
Visibility 8.3 miles    
Events Rain    
Averages and records for this station are not official NWS values.
T = Trace of Precipitation, MM = Missing Value Source: Averaged Metar Reports

Daily Weather History Graph

Daily Weather History Graph

Search for Another Location

Airport or City:

Trip Planner

Search our weather history database for the weather conditions in past years. The results will help you decide how hot, cold, wet, or windy it might be!

Date:

Astronomy

Sep. 09, 2012 Rise Set
Actual Time 6:31 AM BST 7:44 PM BST
Civil Twilight 5:52 AM BST 8:23 PM BST
Nautical Twilight 5:05 AM BST 9:10 PM BST
Astronomical Twilight 4:12 AM BST 10:02 PM BST
Moon 11:50 PM BST (9/9) 4:10 PM BST (9/9)
Length of Visible Light 14h 30m
Length of Day
13h 13m
Last Quarter, 41% of the Moon is Illuminated
Sep 9
Last Quarter
Sep 16
New
Sep 22
First Quarter
Sep 30
Full
Oct 8
Last Quarter

Hourly Weather History & Observations

Time (BST) Temp. Windchill Dew Point Humidity Pressure Visibility Wind Dir Wind Speed Gust Speed Precip Events Conditions
12:50 AM 54 °F - 51 °F 86% 29.87 in 16 mi WSW 5.8 mph - -   Scattered Clouds
12:50 AM 53.6 °F - 51.8 °F 94% 29.86 in 6.2 mi WSW 5.8 mph - N/A   Mostly Cloudy
1:50 AM 51.8 °F - 50.0 °F 94% 29.83 in 6.2 mi WSW 9.2 mph - N/A   Mostly Cloudy
2:50 AM 51.8 °F - 48.2 °F 88% 29.83 in 6.2 mi West 8.1 mph - N/A   Partly Cloudy
3:50 AM 49 °F - 47 °F 89% 29.82 in 12 mi West 4.6 mph - -   Scattered Clouds
3:50 AM 48.2 °F - 46.4 °F 93% 29.80 in 6.2 mi West 4.6 mph - N/A   Partly Cloudy
4:50 AM 48.2 °F - 46.4 °F 93% 29.80 in 6.2 mi WSW 10.4 mph - N/A   Partly Cloudy
5:50 AM 46.4 °F 43.5 °F 44.6 °F 93% 29.77 in 6.2 mi WSW 5.8 mph - N/A   Scattered Clouds
6:50 AM 46 °F - 44 °F 90% 29.77 in 12 mi West 5.8 mph - -   Scattered Clouds
6:50 AM 46.4 °F 43.5 °F 44.6 °F 93% 29.77 in 6.2 mi West 5.8 mph - N/A   Scattered Clouds
7:50 AM 50.0 °F - 48.2 °F 94% 29.74 in 6.2 mi West 5.8 mph - N/A   Scattered Clouds
8:50 AM 53.6 °F - 50.0 °F 88% 29.74 in - WSW 3.5 mph - N/A   Clear
9:50 AM 58 °F - 52 °F 75% 29.73 in 12 mi West 4.6 mph - -   Clear
9:50 AM 59.0 °F - 51.8 °F 77% 29.71 in - West 4.6 mph - N/A   Clear
10:50 AM 59.0 °F - 51.8 °F 77% 29.68 in - SW 2.3 mph - N/A   Clear
11:50 AM 57.2 °F - 50.0 °F 77% 29.65 in - ESE 9.2 mph - N/A   Clear
12:50 PM 60 °F - 51 °F 65% 29.65 in 12 mi East 6.9 mph - -   Scattered Clouds
12:50 PM 60.8 °F - 51.8 °F 72% 29.62 in 6.2 mi East 6.9 mph - N/A   Mostly Cloudy
1:50 PM 60.8 °F - 53.6 °F 77% 29.62 in - East 5.8 mph - N/A   Clear
2:50 PM 64.4 °F - 51.8 °F 64% 29.59 in 6.2 mi SW 10.4 mph - N/A   Mostly Cloudy
3:50 PM 64 °F - 52 °F 56% 29.57 in 16 mi SSW 8.1 mph - -   Overcast
3:50 PM 64.4 °F - 51.8 °F 64% 29.56 in 6.2 mi SSW 8.1 mph - N/A   Mostly Cloudy
4:50 PM 62.6 °F - 53.6 °F 72% 29.53 in 6.2 mi SSW 18.4 mph - N/A   Mostly Cloudy
5:50 PM 62.6 °F - 55.4 °F 77% 29.50 in 6.2 mi SSW 15.0 mph - N/A   Mostly Cloudy
6:50 PM 60 °F - 56 °F 82% 29.52 in 11 mi SW 9.2 mph - - Rain Light Rain
6:50 PM 60.8 °F - 55.4 °F 82% 29.50 in 6.2 mi SW 9.2 mph - N/A Rain Light Rain
7:50 PM 59.0 °F - 57.2 °F 94% 29.50 in 6.2 mi SW 4.6 mph - N/A Rain Light Rain
8:50 PM 59.0 °F - 57.2 °F 94% 29.47 in 6.2 mi SSW 12.7 mph - N/A Rain Light Rain
9:50 PM 60 °F - 57 °F 85% 29.48 in 16 mi SW 11.5 mph - - Rain Light Rain
9:50 PM 60.8 °F - 57.2 °F 88% 29.47 in 6.2 mi SW 11.5 mph - N/A   Mostly Cloudy
10:50 PM 59.0 °F - 55.4 °F 88% 29.44 in 6.2 mi SW 16.1 mph - N/A   Scattered Clouds
11:50 PM 59.0 °F - 55.4 °F 88% 29.44 in 6.2 mi SW 17.3 mph - N/A   Scattered Clouds